www.pogodaiklimat.ru

Погода и климат >> Архив погоды >> Россия >> Камчатский край >> Козыревск


ПОГОДА в Козыревске

  • Прогноз погоды в Козыревске
  • Монитор погоды в Козыревске

АРХИВ ПОГОДЫ в Козыревске

Время (UTC), дата Ветер
(напр.,м/с)
 
Видим.   Явления Облачность Т
(С)
Тd
(С)
f
(%)
Тe
(С)
Тes
(С)
Комфортность P
(гПа)
Po
(гПа)
Тmin
(С)
Tmax
(С)
R
(мм)
R24
(мм)
S
(см)
15 15.09 Ю 1 20 км 9/0
[Ac und]
+7.6 +5.2 85 +7 +7 1015.6 1010.7
18 15.09 штиль 0 50 км 10/0
[Ac As]
+6.3 +4.9 91 +5 +5 1018.3 1013.3
21 15.09 Ю 2 50 км 5/0
[Ac trans]
+8.1 +5.0 81 +6 +7 1018.8 1013.8 +4.5
00 16.09 Ю 3 50 км 3/3 1000 м
[Sc]
+12.1 +5.3 63 +11 +15 1019.6 1014.7
03 16.09 Ю 2 50 км 3/3 1000 м
[Sc]
+16.9 +3.2 40 +17 +22 1018.1 1013.3
06 16.09 Ю 2 50 км ясно +17.7 -0.1 30 +18 +19 1018.1 1013.3
09 16.09 СЗ 1 50 км ясно +6.5 +4.3 86 +5 +5 1019.7 1014.7 +18.2
12 16.09 штиль 0 50 км ясно +1.3 +0.4 94 0 0 1021.1 1016.0
15 16.09 штиль 0 50 км ясно -1.5 -2.3 94 -3 -3 1019.8 1014.7
18 16.09 штиль 0 50 км ясно -3.1 -3.9 94 -4 -4 1019.8 1014.7
21 16.09 СВ 1 50 км ясно +2.0 -0.6 83 0 +2 1018.4 1013.3 -3.8
00 17.09 ЮВ 1 50 км ясно +7.6 +2.1 68 +7 +14 1019.6 1014.7
03 17.09 З 1 50 км ясно +17.7 -0.6 29 +19 +26 1012.7 1008.0
06 17.09 СЗ 1 50 км 5/0
[Ac trans Ci fib]
+18.2 -0.6 28 +19 +20 1011.4 1006.7
09 17.09 ЮВ 1 50 км 8/0
[Ac trans]
+7.7 +5.7 87 +7 +7 1009.2 1004.3 +18.9
12 17.09 штиль 0 50 км 4/0
[Ac trans]
+3.5 +2.5 93 +2 +2 1009.0 1004.0
15 17.09 штиль 0 20 км 6/0
[Ac trans]
+0.1 -0.7 94 -1 -1 1009.0 1004.0
18 17.09 СВ 1 50 км 6/0
[Ac trans]
+1.2 +0.3 94 -1 -1 1007.7 1002.7
21 17.09 СВ 3 50 км 8/0
[Ac trans]
+5.8 +3.9 88 +2 +3 1007.8 1002.9 +0.1
00 18.09 С 3 50 км 6/0
[Ac trans]
+10.9 +5.0 67 +9 +11 1008.8 1004.0
03 18.09 СЗ 2 50 км 8/0
[Ci fib]
+12.9 +4.1 55 +12 +14 1008.8 1004.0
06 18.09 СЗ 1 50 км 8/0
[Ac trans Ci fib]
+12.1 +6.2 67 +12 +13 1008.8 1004.0
09 18.09 штиль 0 50 км 10/0
[Ac As]
+6.7 +5.3 91 +6 +6 1008.9 1004.0 +13.0
12 18.09 штиль 0 20 км 10/0
[Ac As]
+4.9 +3.9 93 +4 +4 1010.2 1005.3
15 18.09 В 1 20 км 8/0
[Ac trans]
+3.9 +3.0 94 +2 +2 1011.7 1006.7
18 18.09 штиль 0 50 км 8/0
[Ac trans]
+3.7 +2.8 94 +3 +3 1011.7 1006.7
21 18.09 З 1 50 км 10/0
[Ac As]
+5.8 +4.6 92 +5 +5 1010.8 1005.9 +3.1
00 19.09 Ю 1 50 км 10/3 1000 м
[Sc Ac As]
+10.7 +5.7 71 +11 +11 1011.5 1006.7
03 19.09 штиль 0 50 км 8/3 1000 м
[Sc Ac trans]
+14.3 +6.4 59 +14 +16 1010.1 1005.3
06 19.09 З 1 50 км 3/3 1000 м
[Sc]
+13.9 +6.0 59 +14 +15 1010.1 1005.3
09 19.09 В 1 50 км 3/3 1000 м
[Sc]
+5.2 +4.0 92 +4 +4 1011.6 1006.7 +17.2
12 19.09 З 1 50 км ясно +1.6 +0.7 94 -0 -0 1011.7 1006.7
15 19.09 В 1 50 км ясно -1.6 -2.3 95 -4 -4 1011.8 1006.7
18 19.09 штиль 0 50 км ясно -2.3 -2.8 96 -4 -4 1011.8 1006.7
21 19.09 штиль 0 50 км {туман} 3/0
[Ci fib]
+1.8 +1.0 94 +1 +2 1012.1 1007.1 -2.9
00 20.09 С 3 50 км {туман} 3/3 1000 м
[Sc]
+12.6 +3.9 55 +11 +15 1010.7 1005.9
03 20.09 С 4 50 км 2 балла +14.5 +2.1 43 +13 +16 1010.1 1005.3
06 20.09 С 3 50 км 3/3 1000 м
[Sc]
+14.0 +2.3 45 +13 +14 1008.8 1004.0
09 20.09 СЗ 2 50 км 8/3 600 м
[Sc Ac trans]
+9.2 +4.8 74 +8 +8 1010.2 1005.3 +14.9
12 20.09 С 2 20 км 8/4 600 м
[Sc Ac trans]
+7.3 +4.3 81 +5 +5 1010.2 1005.3
15 20.09 С 4 20 км 8/4 600 м
[Sc Ac trans]
+7.2 +4.0 80 +4 +4 1010.2 1005.3
18 20.09 С 5
{10}
50 км 8/4 600 м
[Sc Ac trans]
+6.3 +3.1 80 +2 +2 1010.2 1005.3
21 20.09 С 5 50 км 6/3 1000 м
[Sc Ac trans]
+7.7 +3.6 75 +4 +4 1009.9 1005.0 +5.7
00 21.09 С 5-10
{10}
50 км 5/0
[Ac trans Ci fib]
+10.3 +3.2 61 +8 +10 1009.6 1004.8
03 21.09 СВ 4
{11}
50 км 6/3 1000 м
[Sc Ac trans]
+12.6 +1.9 48 +11 +12 1010.1 1005.3
06 21.09 С 3 50 км 3/0
[Ac trans]
+11.8 +2.3 52 +10 +11 1010.1 1005.3
09 21.09 С 2 50 км 8/0
[Ac trans]
+8.8 +3.0 67 +7 +7 1011.6 1006.7 +13.7
12 21.09 штиль 0 50 км 4/0
[Ac trans]
+4.3 +2.5 88 +3 +3 1013.0 1008.0
15 21.09 СЗ 1 20 км 9/0
[Ac und]
+4.5 +2.5 87 +3 +3 1014.3 1009.3
18 21.09 штиль 0 50 км 2 балла -1.6 -2.4 94 -3 -3 1014.4 1009.3
21 21.09 СЗ 1 50 км 3/0
[Ac trans]
+3.2 +0.8 84 +2 +3 1015.1 1010.1 -2.3
00 22.09 СЗ 1 50 км 5 баллов +10.8 -0.7 45 +11 +14 1015.6 1010.7
03 22.09 С 1 50 км 6 баллов +13.9 -1.3 35 +15 +17 1014.1 1009.3
06 22.09 С 2 50 км 6 баллов +11.5 +2.0 52 +11 +11 1014.1 1009.3
09 22.09 ЮВ 1 50 км 6 баллов +4.0 +1.4 83 +3 +3 1015.7 1010.7 +14.9

 

Местоположение метеостанции Козыревск (Камчатский край, Россия): широта 56.05 долгота 159.80 высота над уровнем моря 40 м.

В архиве по умолчанию представлена погода в Козыревске за последнюю неделю. Архивные данные за месяц целиком и за предыдущие месяцы, начиная с января 2011 года, Вы можете получить, выбрав интересующий диапазон дат из раскрывающегося списка и нажав кнопку "Ввод!".


*Определитесь, кто Вы:
робот инопланетянин человек

Внимание! Время в таблицах - всемирное. Для получения местного времени необходимо прибавить поправку, которая равна 12 ч.

Смотрите также архив погоды в соседних городах и на ближайших метеорологических станциях:

Погода в Ключах (Камчатский край, Россия) (69 км)
Погода в Эссо (Камчатский край, Россия) (70 км)
Погода в Долиновке (Камчатский край, Россия) (115 км)
Погода в Мильково (Камчатский край, Россия) (173 км)
Погода в Усть-Камчатске (Камчатский край, Россия) (181 км)
Погода в Тигиле (Камчатский край, Россия) (203 км)
Погода в Семячике (Камчатский край, Россия) (215 км)
Погода на Мысе Африка (Камчатский край, Россия) (217 км)
Погода в Усть-Хайрюзово (Камчатский край, Россия) (222 км)
Погода в Пущино (Камчатский край, Россия) (237 км)

Пояснения к столбцам:

Ветер - указаны скорость ветра в м/с - средняя за 10 мин, порывы в срок и между сроками (в фигурных скобках) и направление, откуда дует ветер: С - северный, СВ - северо-восточный, В - восточный, ЮВ - юго-восточный, Ю - южный, ЮЗ - юго-западный, З - западный, СЗ - северо-западный.
Видимость - горизонтальная дальность видимости в метрах или километрах. При видимости от 1 до 10 км при отсутствии осадков обычно наблюдается дымка, при ухудшении видимости до 1 км и менее - туман. В сухую погоду видимость может ухудшаться дымом, пылью или мглою.
Явления - указаны атмосферные явления, наблюдавшиеся в срок или в последний час перед сроком; фигурными скобками обозначены явления, наблюдавшиеся между сроками (за 1-3 часа до срока); квадратными скобками обозначены град или гололедные отложения с указанием их диаметра в мм.
Облачность - указаны через наклонную черту общая и нижняя облачность в баллах и высота нижней границы облаков в метрах; квадратными скобками обозначены формы облаков: Ci - перистые, Cs - перисто-слоистые, Cc - перисто-кучевые, Ac - высококучевые, As - высокослоистые, Sc - слоисто-кучевые, Ns - слоисто-дождевые, Cu - кучевые, Cb - кучево-дождевые. Подробнее классификацию облаков см. в Атласе облаков (PDF).
T - Температура воздуха - температура, измеренная на высоте 2 м над землей.
Td - Температура точки росы - температура, при понижении до которой содержащийся в воздухе водяной пар достигнет насыщения.
f - Относительная влажность воздуха - влажноcть воздуха, измеренная на высоте 2 м над землей.
Te - Эффективная температура - температура, которую ощущает одетый по сезону человек в тени. Характеристика душности погоды. При расчете учитывается влияние влажности воздуха и скорости ветра на теплоощущения человека.
Tes - Эффективная температура на солнце - температура, которую ощущает человек, с поправкой на солнечный нагрев. Характеристика знойности погоды. Зависит от высоты солнца над горизонтом, облачности и скорости ветра. Ночью, в пасмурную погоду, а также при ветре 12 м/с и более поправка равна нулю.
P - Атмосферное давление - приведенное к уровню моря атмосферное давление.
Po - Атмосферное давление - измеренное на уровне метеостанции атмосферное давление.
Tmin - Минимальная температура - минимум температуры воздуха на высоте 2 м над землей.
Tmax - Максимальная температура - максимум температуры воздуха на высоте 2 м над землей.
R - Количество осадков - Количество выпавших осадков за период времени, мм. При наведении курсора мыши на число - период времени, за который выпало указанное количество осадков.
R24 - Количество осадков - Количество выпавших осадков за 24 часа, мм.
S - Снежный покров - Высота снежного покрова, см. При наведении курсора мыши на число - состояние снежного покрова и степень покрытия местности в баллах.